Location: Larkspur
(54.4391°N, 113.7691°W)
Time: 18:24:31
(UTC+00:00)

MOZHAYETS 4 - Pass Details

Date: 02 December 2023
Orbit: 654 x 672 km, 98.3° (Epoch: 23 February)

Event Time Altitude Azimuth Distance (km) Brightness Sun altitude
Rises 01:45:11 0° 5° (N) 3,033 11.0 -20.6°
Reaches altitude 10° 01:48:23 10° 341° (NNW) 2,117 10.4 -21.1°
Maximum altitude 01:50:45 14° 310° (NW) 1,850 10.5 -21.4°
Drops below altitude 10° 01:53:08 10° 279° (W) 2,114 11.3 -21.8°
Sets 01:56:20 0° 255° (WSW) 3,025 12.6 -22.3°
